Presure
134 134 143 219 231 237 201 210 232 239 273 179 334 321 353 502 517 539 574 450 421 259 347 314 332 319 336 297 289 278 263 240 212 187 198 203 234 191 206 195 191 181 171 171 174 182 191
104 154 157 195 235 198 198 206 235 241 276 311 335 360 490 497 543 517 520 542 469 369 341 333 334 337 329 304 299 283 273 240 229 207 191 192 210 183 190 228 220 194 187 168 162 165 174
155 154 152 207 102 193 204 208 240 243 278 298 337 407 483 546 514 490 495 501 514 504 320 345 308 329 323 312 295 281 280 257 235 227 201 200 205 175 229 222 222 218 195 181 180 171 166
139 130 134 211 233 195 195 210 248 247 284 341 361 485 478 545 504 481 480 476 160 505 329 317 324 329 332 303 306 289 280 272 240 232 229 192 232 195 191 229 191 179 217 211 174 180 177
133 101 141 194 229 194 198 211 249 258 289 342 492 483 514 534 470 454 480 469 470 472 392 322 336 332 321 306 305 286 287 269 261 233 233 223 198 214 201 204 223 184 179 208 214 187 185
148 110 139 124 228 193 185 209 248 276 306 353 502 466 535 486 464 444 443 451 450 449 438 308 332 331 311 297 289 293 286 274 266 255 231 228 220 218 205 190 222 229 210 175 214 215 161
126 108 130 124 229 227 199 218 241 283 314 386 487 469 463 459 440 439 441 466 434 428 436 306 328 317 309 316 287 283 283 286 264 265 249 231 224 216 209 201 171 220 221 222 209 210 221
141 148 151 128 231 225 173 225 245 286 354 501 477 463 459 436 448 446 446 444 426 424 413 310 307 311 303 296 300 278 267 282 277 263 256 251 236 207 226 206 221 206 217 188 187 213 212
118 113 136 152 165 203 176 223 244 293 427 535 481 452 441 442 423 433 441 444 426 418 398 308 288 309 304 303 307 271 259 262 274 276 267 250 237 227 211 221 200 207 209 205 206 189 205
148 115 141 220 241 258 177 191 243 316 514 499 475 460 444 459 440 455 447 451 416 539 328 304 286 297 305 290 282 292 257 256 264 259 260 257 259 237 238 221 221 214 208 206 196 219 215
140 120 100 142 244 272 181 196 244 314 398 436 483 493 467 450 455 459 468 419 592 438 304 294 290 297 293 296 271 294 264 256 255 261 267 270 274 247 252 243 228 218 208 214 213 205 197
141 147 192 133 127 249 183 218 246 310 432 416 449 490 490 474 474 493 425 422 428 355 296 290 288 300 300 279 284 297 260 262 256 260 271 255 250 251 256 244 250 243 217 222 217 209 196
147 143 193 241 132 242 178 227 276 334 364 421 417 498 497 525 512 420 455 391 341 320 290 297 305 300 289 270 285 271 298 263 255 249 242 249 254 266 251 239 251 251 251 249 254 237 220
131 160 152 227 134 235 171 227 301 322 367 394 393 460 469 472 479 362 353 341 322 300 303 306 294 284 283 273 276 268 266 302 287 251 246 241 240 248 243 245 248 252 240 239 240 246 241
130 175 156 203 214 231 207 222 301 321 338 389 400 416 392 377 347 350 359 337 282 288 277 282 291 284 270 271 267 260 303 291 287 286 273 244 253 247 246 236 249 251 248 238 244 247 243
165 151 190 128 211 220 220 223 293 319 272 386 374 384 406 383 358 354 373 273 278 275 269 282 267 268 262 261 258 272 291 295 284 285 288 291 254 252 248 248 242 244 245 244 247 241 237
213 176 205 173 207 215 216 214 302 312 289 333 375 371 409 371 365 323 266 265 261 271 265 257 261 259 260 260 290 290 293 284 276 271 270 281 287 290 255 249 241 238 241 241 249 246 238
179 186 154 187 203 202 207 153 285 298 284 320 385 360 307 303 294 283 274 273 274 267 259 259 265 256 249 256 267 285 287 276 265 261 259 258 269 272 267 267 264 240 240 244 251 263 243
193 186 137 185 199 212 223 273 300 298 301 315 332 369 331 298 285 277 275 277 270 266 250 241 248 251 250 246 247 239 250 254 262 267 267 262 254 253 261 261 262 262 265 235 243 241 247
211 187 139 191 211 230 243 275 296 299 296 315 331 394 376 301 286 276 268 265 241 265 240 233 236 236 237 241 240 253 256 257 258 238 235 267 271 259 258 256 257 261 263 264 264 256 261
191 158 200 216 238 231 297 275 257 282 293 314 305 331 403 369 286 280 282 273 254 244 247 238 231 231 238 243 280 267 261 260 265 268 268 273 276 280 283 286 292 297 291 292 293 276 260
190 142 204 218 261 256 287 277 298 280 277 310 309 306 338 400 296 283 278 274 263 253 250 243 238 236 242 280 265 258 255 256 255 252 251 252 254 258 259 263 260 253 250 243 234 225 224
187 190 230 250 294 283 280 278 301 278 287 284 285 288 317 345 389 280 279 246 256 258 232 235 232 238 239 266 257 247 247 240 241 236 236 235 233 232 236 229 225 225 239 254 257 250 240
128 208 263 290 290 283 287 280 144 291 299 295 281 273 292 324 339 359 273 271 249 259 239 219 235 239 239 266 250 241 243 239 236 234 231 228 228 236 270 285 276 267 235 221 215 209 222
188 172 296 290 287 290 286 284 267 291 277 287 265 269 302 284 318 344 314 277 264 255 262 237 223 235 247 265 250 250 241 236 234 227 294 294 259 221 214 212 214 224 224 210 236 232 242
286 300 293 181 286 287 291 285 274 291 280 283 281 282 296 305 298 295 329 266 273 259 254 249 239 222 255 267 252 239 237 229 228 224 225 223 219 218 216 219 222 223 214 244 237 224 224
309 220 288 244 285 288 305 300 273 292 281 279 295 292 283 298 286 283 305 323 271 278 252 236 249 227 245 263 249 239 239 231 230 226 222 222 217 219 226 230 215 209 244 231 231 226 231
301 291 291 286 295 305 295 282 306 291 282 269 303 287 287 295 285 274 311 301 302 289 269 251 241 248 236 266 250 238 233 234 224 225 223 222 226 228 237 216 228 229 242 241 231 230 223
297 294 224 303 307 299 312 276 295 289 279 281 278 288 297 302 294 291 287 304 310 299 314 269 250 240 223 270 234 240 232 230 229 223 220 223 225 235 218 221 241 234 186 240 227 230 213
Wind_Speed
65 71 69 100 100 99 85 86 98 102 108 74 100 98 99 64 59 48 37 67 73 52 67 70 73 80 81 97 98 105 113 116 106 91 101 97 107 101 112 109 109 102 99 97 100 98 95
42 74 81 92 102 86 85 89 104 105 111 112 104 107 63 58 32 28 31 33 62 75 69 75 75 81 84 95 103 104 109 113 110 106 97 98 104 92 88 105 107 109 107 94 85 84 89
72 76 80 99 52 86 87 91 109 109 114 110 108 92 58 39 27 24 23 27 27 52 73 72 77 80 83 91 97 101 102 112 109 109 103 103 103 82 105 103 102 104 108 101 99 94 87
67 63 70 98 105 87 88 93 115 113 117 110 114 57 52 26 21 19 18 21 17 37 77 77 79 78 77 89 94 97 101 102 113 110 110 96 104 95 90 99 86 83 99 103 94 97 90
64 50 79 90 106 89 91 95 118 119 120 110 60 48 40 14 18 17 14 19 27 44 72 75 73 76 76 83 82 95 97 102 110 111 110 107 99 102 86 91 98 84 83 95 101 101 96
79 45 80 65 108 90 90 96 120 124 117 111 49 46 13 12 12 12 11 14 23 39 63 73 71 73 74 80 83 89 90 99 105 111 107 105 101 100 97 83 91 91 93 79 98 98 80
57 41 75 66 112 109 94 102 118 123 116 104 50 36 23 15 13 10 8 6 23 39 59 72 66 62 71 76 86 86 86 87 104 104 108 105 101 98 98 96 73 90 89 90 94 92 89
78 79 77 66 113 107 89 108 121 122 111 52 42 30 20 16 12 9 7 10 26 41 60 67 60 65 73 75 85 84 82 81 91 97 101 103 103 95 98 95 95 91 87 83 84 92 90
55 53 78 76 81 96 91 107 120 119 85 31 28 31 28 11 11 8 4 11 29 42 63 65 56 63 68 70 70 83 81 79 78 84 88 98 100 98 97 97 92 91 90 87 88 80 84
71 57 79 110 118 117 91 95 120 111 48 38 31 29 24 13 10 6 4 15 31 37 67 60 55 61 64 67 64 79 83 81 80 85 87 91 88 97 98 97 94 92 92 88 86 87 86
77 59 52 77 119 118 91 97 120 109 73 51 36 26 17 10 9 4 6 30 22 58 62 57 54 56 56 58 56 68 87 78 76 75 71 66 72 86 88 94 95 94 90 89 89 85 82
74 74 97 72 66 110 91 107 119 106 59 59 55 32 19 9 8 6 33 43 55 62 57 50 47 48 50 47 51 51 81 78 75 72 68 76 80 79 81 88 85 91 93 93 89 86 81
73 62 96 117 67 110 86 109 110 95 90 56 62 37 30 20 18 42 55 56 60 57 44 42 43 44 46 40 40 47 52 76 70 68 69 68 65 66 76 81 75 79 81 81 78 89 92
60 78 78 100 68 112 84 108 102 93 86 67 64 46 41 29 44 55 54 56 52 42 37 40 37 36 36 33 37 43 46 49 64 73 74 75 74 70 72 71 71 73 75 76 77 77 82
57 94 79 98 105 110 99 107 98 89 85 59 60 48 31 47 41 44 51 51 37 34 34 30 32 31 28 28 31 33 32 42 46 55 73 71 74 68 69 71 64 65 67 72 70 68 70
77 75 86 59 105 108 105 106 95 84 75 58 60 53 22 34 37 34 43 40 36 35 30 30 29 26 29 27 24 21 27 36 44 41 41 53 73 72 72 68 66 63 64 63 63 65 68
102 95 103 84 102 106 104 98 84 78 84 71 51 48 28 33 29 42 28 32 30 33 35 30 30 30 23 21 20 22 30 33 32 32 33 34 41 49 72 71 65 64 63 62 60 61 64
96 98 78 91 99 98 100 62 86 75 78 66 35 37 28 24 24 22 25 28 30 30 27 26 25 19 16 15 13 16 21 25 28 31 32 33 35 39 45 55 69 66 62 59 59 59 62
98 88 67 89 96 102 104 88 70 69 65 60 50 26 30 17 14 14 18 23 24 25 25 23 21 21 18 15 14 15 15 19 23 29 31 31 33 35 40 45 49 54 63 50 55 55 57
94 90 69 91 100 100 102 84 67 63 59 52 48 32 19 11 6 9 13 16 11 22 21 20 21 19 21 23 23 20 20 21 22 22 24 26 29 34 38 40 42 44 45 48 50 50 51
93 78 95 99 102 94 65 77 59 66 56 47 46 39 23 9 5 6 16 20 18 17 22 19 20 19 18 15 20 24 24 22 22 22 24 24 25 27 27 28 29 28 30 30 29 30 29
91 68 96 90 96 78 67 70 52 61 59 45 36 39 28 18 19 12 15 20 18 19 20 20 18 16 15 17 24 24 22 21 20 21 21 23 25 26 27 27 25 26 27 26 26 28 30
88 89 99 73 73 73 68 65 45 58 49 47 43 37 30 23 12 21 18 8 12 19 11 16 15 15 15 21 24 21 20 19 19 20 19 19 20 20 20 19 22 23 25 25 23 23 22
57 94 95 74 70 69 62 61 48 47 40 37 42 42 26 24 12 13 21 23 10 18 15 12 17 17 15 23 22 22 22 22 22 23 23 22 20 20 24 26 28 27 22 19 22 24 26
82 65 73 69 67 63 60 57 60 44 49 41 47 43 29 21 16 13 19 30 24 18 27 19 13 19 18 24 24 24 25 24 24 23 21 22 23 22 22 22 20 15 18 21 27 26 26
87 70 69 55 65 61 56 53 54 43 48 43 41 40 34 27 17 15 9 25 37 31 28 28 22 15 21 28 26 26 25 24 24 23 23 22 21 19 16 14 14 18 20 27 26 22 24
69 56 66 58 62 57 46 45 53 40 45 45 40 38 38 37 30 20 20 14 34 41 30 23 29 22 23 30 29 27 28 27 25 23 21 19 17 17 16 17 18 20 25 24 25 25 28
67 66 62 61 57 47 47 50 35 40 44 47 41 42 41 41 39 34 26 23 28 40 45 37 31 32 27 35 33 31 28 29 25 24 23 21 19 18 20 18 22 20 25 26 24 26 27
62 62 53 54 51 48 39 51 38 40 45 45 44 43 46 44 46 42 42 36 30 33 36 50 43 35 28 40 31 35 31 31 30 27 25 23 22 22 18 18 19 21 21 26 23 29 25
Wind_Direction
354 351 345 349 349 347 346 347 350 348 344 339 329 330 324 301 293 284 271 247 236 237 224 229 222 218 211 217 216 215 215 218 221 225 223 227 227 229 229 230 231 230 230 232 237 239 241
323 349 351 349 349 347 345 349 350 349 344 337 332 329 316 313 296 281 268 260 234 224 220 220 220 216 212 214 217 214 214 217 219 222 224 226 226 228 230 231 230 229 231 233 237 238 241
351 350 352 347 341 344 347 350 350 349 345 341 334 329 321 313 296 283 267 256 254 227 218 213 219 215 210 210 216 214 215 214 218 220 224 226 226 229 230 230 231 230 231 232 234 237 239
349 353 356 346 350 346 348 350 349 349 345 335 335 324 325 307 300 286 266 248 273 219 211 214 214 213 210 212 215 214 214 213 216 219 220 227 224 228 229 230 231 231 233 234 236 238 239
354 327 356 349 350 347 349 350 349 347 346 338 330 328 325 315 306 296 280 248 227 209 204 209 207 209 208 208 211 213 214 213 214 219 220 222 226 225 229 230 230 232 233 235 238 236 238
350 332 356 355 350 348 349 350 349 346 343 340 339 337 350 338 322 300 284 247 219 202 197 210 203 204 205 205 209 212 213 212 214 215 220 222 223 225 229 231 232 232 232 237 236 239 237
1 329 360 354 349 347 349 351 350 346 343 339 339 344 346 1 333 323 294 271 199 193 190 204 201 200 205 204 206 209 212 212 215 215 217 221 224 225 227 230 234 231 233 235 236 238 238
348 347 342 339 348 348 350 351 350 346 343 333 335 346 344 337 353 315 279 211 187 185 185 199 198 195 201 205 205 207 211 212 214 216 217 219 221 227 226 230 228 232 232 235 238 237 238
344 351 352 349 344 350 350 351 351 347 345 343 341 344 343 330 342 333 269 196 174 175 178 192 194 193 198 203 204 206 212 213 213 216 217 218 220 224 229 228 232 232 232 234 235 239 238
339 339 347 345 345 342 349 350 350 347 358 360 348 335 336 322 336 354 196 170 160 158 177 188 190 191 195 201 203 200 212 212 213 215 216 218 220 222 225 230 230 232 235 236 238 237 238
345 356 335 348 344 340 349 350 350 348 359 10 1 356 346 341 325 69 139 144 138 154 176 183 186 190 192 196 202 198 211 215 216 217 216 215 220 222 226 228 229 234 236 236 238 240 240
344 345 342 344 352 343 349 351 349 349 5 359 19 17 16 14 49 69 127 134 139 156 176 179 181 185 191 197 199 196 211 214 217 220 222 219 219 221 223 228 230 232 236 237 239 240 242
342 340 342 341 354 343 351 351 347 355 2 10 12 39 38 44 75 114 122 126 149 160 164 173 176 179 187 192 196 202 207 217 217 220 222 223 224 226 225 228 230 232 235 238 239 240 241
347 342 346 341 355 343 352 350 348 355 5 10 14 42 57 69 112 116 131 144 149 155 159 164 167 175 179 187 187 197 208 211 217 219 221 225 225 225 225 226 229 232 235 237 239 240 241
346 340 347 342 345 343 347 349 348 357 2 14 21 36 75 104 110 131 138 146 126 134 141 148 158 160 164 176 184 199 201 205 209 213 218 225 228 231 232 230 233 233 235 239 241 242 244
339 343 340 356 344 343 345 348 348 357 1 19 23 29 110 117 122 125 133 113 122 127 133 135 134 147 162 173 187 202 202 203 206 211 218 220 226 227 232 236 236 236 236 239 241 244 246
334 336 337 344 342 342 344 347 348 356 357 7 25 31 69 67 116 113 111 115 123 125 131 139 145 150 159 168 181 185 194 197 197 197 204 208 214 219 231 236 237 239 241 242 245 245 248
334 334 340 340 340 341 343 343 346 351 354 6 37 29 55 80 96 105 111 117 128 131 135 134 141 145 148 149 144 168 183 192 193 199 202 208 209 213 218 224 233 237 242 243 251 251 249
331 334 344 338 338 338 338 338 342 349 357 7 12 31 18 100 80 86 109 125 129 132 135 141 135 134 135 146 158 176 172 177 193 208 214 215 214 217 219 220 222 229 238 240 245 248 251
328 331 340 335 334 334 334 336 339 346 353 7 11 33 53 126 107 83 121 131 160 144 164 168 159 163 169 172 180 181 183 192 195 202 205 208 212 220 223 224 228 231 234 237 242 249 253
327 332 330 330 330 332 331 333 337 342 347 5 7 11 30 81 209 176 161 158 170 172 163 173 183 187 179 187 173 174 175 186 191 187 190 192 193 198 203 206 212 214 219 223 227 232 237
325 333 328 330 327 328 328 331 332 339 338 357 8 9 16 28 206 233 190 185 187 179 174 179 190 193 188 192 184 181 182 186 185 186 185 187 191 194 196 200 198 202 207 214 222 233 238
323 326 324 328 323 324 325 328 328 334 341 342 350 1 9 19 27 235 232 322 217 198 247 213 221 210 207 196 190 184 185 182 181 182 186 188 193 198 198 199 208 214 211 209 209 220 229
326 322 322 322 321 321 322 325 340 327 340 341 341 345 359 6 9 21 246 246 265 238 250 309 235 224 221 204 198 193 188 185 184 186 190 192 193 202 204 192 189 194 207 225 236 244 248
319 324 318 318 318 317 318 320 324 320 325 332 332 337 350 350 346 355 238 237 241 250 234 271 256 244 229 209 202 197 190 192 190 193 212 202 196 194 200 206 213 220 225 242 224 238 222
315 317 316 328 316 315 313 317 319 314 320 326 330 330 335 339 335 291 298 261 234 240 246 245 259 264 234 213 203 200 199 202 199 203 199 197 200 207 212 220 227 231 242 211 224 247 248
314 318 314 316 313 313 306 308 316 311 315 322 324 326 326 328 324 321 280 258 249 237 249 248 249 251 241 214 205 206 200 208 206 209 213 210 212 220 226 224 232 244 217 232 226 236 236
314 312 311 309 307 303 305 310 302 307 312 317 321 321 319 321 314 318 300 269 239 238 239 243 241 242 245 217 209 214 214 210 222 221 223 224 225 225 222 230 232 240 224 221 226 230 240
310 308 313 302 298 300 293 309 302 305 309 311 315 316 318 315 307 306 303 285 270 246 238 239 238 232 228 220 226 219 222 222 223 230 234 230 229 228 231 243 228 232 240 226 233 238 246